CET,Max TemperatureF,Mean TemperatureF,Min TemperatureF,Max Dew PointF,MeanDew PointF,Min DewpointF,Max Humidity, Mean Humidity, Min Humidity, Max Sea Level PressureIn, Mean Sea Level PressureIn, Min Sea Level PressureIn, Max VisibilityMiles, Mean VisibilityMiles, Min VisibilityMiles, Max Wind SpeedMPH, Mean Wind SpeedMPH, Max Gust SpeedMPH,PrecipitationIn, CloudCover, Events, WindDirDegrees
2012-10-1,64,55,46,54,49,43,100,79,56,30.06,29.98,29.92,6,6,4,14,9,,0.00,6,Rain,201
2012-10-2,62,58,53,55,53,50,94,85,68,29.95,29.93,29.86,6,6,3,13,9,,0.00,7,Rain,203
2012-10-3,60,56,51,55,53,50,100,90,72,29.86,29.77,29.74,6,6,3,16,12,26,0.00,7,Rain,206
2012-10-4,59,54,48,52,49,43,100,90,55,29.92,29.73,29.65,6,6,3,18,7,30,0.00,6,Rain,236
2012-10-5,62,55,48,59,52,45,100,88,77,29.92,29.76,29.62,6,6,3,21,12,38,0.00,7,Rain,236
2012-10-6,59,50,41,59,49,41,100,94,72,29.98,29.85,29.68,6,5,1,20,4,21,0.00,6,Rain-Hail,272
2012-10-7,59,47,35,50,39,36,100,91,48,30.24,30.08,29.98,6,5,0,9,2,,0.00,5,Fog,255
2012-10-8,57,46,35,48,40,36,100,91,59,30.24,30.11,29.86,6,5,1,8,2,,0.00,6,Rain,153
2012-10-9,57,46,35,50,42,36,100,89,51,30.04,29.94,29.86,6,4,0,9,3,,0.00,5,Fog,345
2012-10-10,57,46,35,45,39,36,100,88,51,30.04,30.00,29.98,6,6,4,6,2,,0.00,7,,75
2012-10-11,59,48,37,50,42,36,100,82,59,29.98,29.82,29.65,6,6,4,13,6,,0.00,5,Rain,115
2012-10-12,59,52,46,57,51,41,100,89,67,29.86,29.65,29.56,6,5,1,20,10,31,0.00,6,Rain,207
2012-10-13,53,48,44,50,46,43,100,93,87,29.86,29.69,29.59,6,6,4,20,9,,0.00,7,Rain,199
2012-10-14,53,47,41,45,43,39,100,89,62,29.59,29.53,29.44,6,6,4,12,8,,0.00,5,Rain,221
2012-10-15,55,48,41,46,43,37,100,85,51,29.71,29.57,29.44,6,6,3,14,7,,0.00,6,Rain,229
2012-10-16,59,54,46,50,46,41,100,85,58,29.77,29.64,29.59,6,6,2,18,14,29,0.00,5,Rain,200
2012-10-17,60,52,44,55,51,43,100,92,77,29.77,29.67,29.62,6,6,4,17,10,,0.00,7,Rain,170
2012-10-18,66,60,53,59,55,54,100,84,68,29.77,29.71,29.65,6,6,6,17,8,,0.00,7,Rain,166
2012-10-19,69,62,55,57,55,52,100,80,56,29.86,29.80,29.77,6,6,2,15,5,,0.00,7,Rain,157
2012-10-20,62,60,57,59,56,54,100,87,77,30.06,30.00,29.86,6,6,3,10,6,,0.00,8,Rain,269
2012-10-21,62,58,55,57,55,54,100,94,82,30.04,30.02,29.98,6,3,1,14,9,,0.00,7,,40
2012-10-22,71,61,51,63,57,52,100,93,60,30.18,30.11,30.04,6,4,0,8,4,,0.00,5,Fog,40
2012-10-23,66,58,50,55,54,50,100,92,68,30.21,30.19,30.18,6,3,1,9,4,23,0.00,7,,65
2012-10-24,59,54,50,54,52,48,100,92,77,30.18,30.12,30.06,2,2,1,10,7,25,0.00,7,,64
2012-10-25,55,52,48,52,49,43,100,93,76,30.06,30.01,29.95,6,4,1,13,7,25,0.00,8,Fog-Rain,35
2012-10-26,48,42,37,45,36,28,93,73,57,30.01,29.87,29.71,6,6,4,15,9,,0.00,8,Rain,42
2012-10-27,46,38,30,36,31,27,100,81,57,29.98,29.78,29.65,6,6,6,15,7,,0.00,4,,8
2012-10-28,50,37,24,39,31,23,100,86,54,30.01,29.98,29.95,6,6,1,14,4,,0.00,6,Fog,235
2012-10-29,48,44,41,45,42,34,100,88,66,29.95,29.81,29.68,6,6,4,15,13,24,0.00,7,Rain,208
2012-10-30,50,44,35,46,43,36,100,95,82,29.68,29.62,29.59,6,4,0,10,5,,0.00,7,Fog-Rain,223
2012-10-31,55,45,35,46,40,36,100,88,54,29.59,29.45,29.24,6,5,2,20,9,,0.00,5,,179